Location: Newark
(34.0131°N, 4.3314°W)
Time: 01:45:14
(UTC+00:00)

A-11 Canister half - Visible Passes

Search period start: 17 October 2019 00:00
Search period end: 27 October 2019 00:00
Orbit: 1514 x 1686 km, 47.2° (Epoch: 16 October)

Date Brightness Start Highest point End Pass type
(mag) Time Alt. Az. Time Alt. Az. Time Alt. Az.
17 Oct 11.2 01:03:32 11° ENE 01:03:32 11° ENE 01:03:43 10° ENE visible
17 Oct 9.3 03:01:45 62° NE 03:01:45 62° NE 03:09:27 10° NE visible
17 Oct 9.7 04:59:58 21° WNW 05:05:52 40° NNW 05:14:40 10° NE visible
18 Oct 9.7 02:40:13 48° NE 02:40:13 48° NE 02:46:32 10° NE visible
18 Oct 9.6 04:38:25 28° WNW 04:42:50 41° NNW 04:51:43 10° NE visible
19 Oct 10.1 02:18:39 36° NE 02:18:39 36° NE 02:23:38 10° NE visible
19 Oct 9.6 04:16:51 35° NW 04:19:48 43° NNW 04:28:45 10° NE visible
20 Oct 10.5 01:57:04 27° NE 01:57:04 27° NE 02:00:42 10° NE visible
20 Oct 9.5 03:55:16 41° NW 03:56:46 44° NNW 04:05:49 10° NE visible
20 Oct 9.9 05:54:58 10° WNW 06:03:51 38° N 06:12:27 10° ENE visible
21 Oct 10.8 01:35:28 20° NE 01:35:28 20° NE 01:37:46 10° NE visible
21 Oct 9.5 03:33:40 45° NNW 03:33:44 45° NNW 03:42:52 10° NE visible
21 Oct 9.9 05:31:55 10° WNW 05:40:48 38° N 05:49:25 10° ENE visible
22 Oct 11.1 01:13:50 14° NE 01:13:50 14° NE 01:14:51 10° NE visible
22 Oct 9.6 03:12:02 44° N 03:12:02 44° N 03:19:55 10° NE visible
22 Oct 9.9 05:10:14 15° NW 05:17:46 38° N 05:26:23 10° ENE visible
23 Oct 9.9 02:50:24 40° NNE 02:50:24 40° NNE 02:56:59 10° NE visible
23 Oct 9.9 04:48:37 20° NW 04:54:42 37° N 05:03:20 10° ENE visible
24 Oct 10.2 02:28:47 33° NNE 02:28:47 33° NNE 02:34:02 10° NE visible
24 Oct 9.9 04:26:59 25° NW 04:31:40 37° N 04:40:18 10° ENE visible
25 Oct 10.5 02:07:10 27° NE 02:07:10 27° NE 02:11:07 10° NE visible
25 Oct 9.9 04:05:22 30° NW 04:08:36 37° N 04:17:17 10° ENE visible
26 Oct 10.8 01:45:32 21° NE 01:45:32 21° NE 01:48:11 10° NE visible
26 Oct 9.8 03:43:45 35° NNW 03:45:33 37° N 03:54:15 10° ENE visible
26 Oct 9.5 05:42:52 10° NW 05:52:22 55° NNE 06:01:30 10° ESE visible
